CZ-3C DEB, 39340

Orbit data source: Space-Track

CZ-3C DEB, 39340 is space debris in HEO originally from a launch on Sun, 31 Oct 2010 UTC launched from the Xichang Space Center, China (XSC). Debris objects in space refer to the collection of defunct objects orbiting the Earth. Examples of debris include non-operational satellites, rocket bodies, and fragments generated from explosions, collisions, or faulty payload assembly.

Loading next visibility...
Identifier
39340, 2010-057E
Orbit
HEO
Country
Flag of CNCN / PRC
Related business
Manufacturer
CALT
Mission
Spacecraft
Bus & Motor
Unknown
Mass
Unknown
Launch date (UTC)
2010-10-31 (16 years ago)
Launch vehicle
Unknown
Launch site
Xichang Space Center, China (XSC)
Object type
Payload
Rocket body
Debris
Shape & HBR
Unknown shape, 0.3 m
Radar Cross Section
Medium (>0.1 m² and <1 m²)

Expand to show TLE details & history
Last TLE update: 1 day ago

TLE from 1 day ago
0 CZ-3C DEB
1 39340U 10057E   26170.95837077 -.00000034  00000-0  81224-3 0  9992
2 39340  19.8641 331.2515 7157554  58.6483 352.1811  2.31249564105382
Epoch: 2026-06-19T23:00Z
TLE epoch observation values (Epoch: 2026-06-19T23:00:03.234Z)
Latitude
0.00047°
Longitude
78.05311°
Altitude
2,217.865 km
Speed
8.731 km/s
True Right ascension
22h 04m 59s
True Declination
0° 00' 02"
Sunlit
Object was in daylight at epoch
Visualization orbit readout
Latitude
Unknown
Longitude
Unknown
Altitude
Unknown
Speed
Unknown
Apparent Right ascension
Unknown
Apparent Declination
Unknown
Sunlit
N/A
Visualization observer readout
Local Sidereal Time
18:47:29
Azimuth
Unknown
Elevation
Unknown
Doppler factor
Unknown
Orbital elements
Apogee altitude
35,074.273 km
Perigee altitude
489.173 km
Semi-major axis
24,159.86 km
Eccentricity
0.71576
Inclination
19.8641°
RAAN
331.2515°
Arg. of periapsis
58.6483°
True anomaly
302.00257°
Mean anomaly
352.1811°
Eccentric anomaly
334.57333°
Mean motion
0.57797 °/min
Orbital period
622.88 mins
BSTAR
0.00081224
Loading maneuver chart data...
Computing Atmospheric mass density...
Loading historical data...
Loading historical data...
Loading historical data...
Loading historical data...
Loading historical data...
Loading historical data...
Loading historical data...

Documentation

Showing up to 5 results
|